This is the latest recevied weather packets stored in our database for station/object SALT. If no packets are shown the sender has not sent any weather packets the latest 10 day(s).
| Time | Temp. | Humidity | Pressure | Rain* | Wind** | Luminosity | Snow |
|---|---|---|---|---|---|---|---|
| 1777849816 | 16.67° C | 32% | 1016 hPa | 0 mm | - | - | - |
| 1777849212 | 16.67° C | 33% | 1016.2 hPa | 0 mm | - | - | - |
| 1777848610 | 16.67° C | 34% | 1016.4 hPa | 0 mm | - | - | - |
| 1777848008 | 16.67° C | 35% | 1016.6 hPa | 0 mm | - | - | - |
| 1777847403 | 16.67° C | 33% | 1016.7 hPa | 0 mm | - | - | - |
| 1777846800 | 17.22° C | 32% | 1016.6 hPa | 0 mm | - | - | - |
| 1777846198 | 17.22° C | 31% | 1016.7 hPa | 0 mm | - | - | - |
| 1777845595 | 16.67° C | 30% | 1016.9 hPa | 0 mm | - | - | - |
| 1777845058 | 16.67° C | 31% | 1017 hPa | 0 mm | - | - | - |
| 1777844992 | 16.67° C | 31% | 1017 hPa | 0 mm | - | - | - |
| 1777844390 | 17.22° C | 33% | 1017.1 hPa | 0 mm | - | - | - |
| 1777843785 | 16.67° C | 30% | 1017.3 hPa | 0 mm | - | - | - |
| 1777843182 | 16.67° C | 31% | 1017.4 hPa | 0 mm | - | - | - |
| 1777842580 | 17.22° C | 32% | 1017.6 hPa | 0 mm | - | - | - |
| 1777841977 | 16.67° C | 34% | 1017.6 hPa | 0 mm | - | - | - |
| 1777841374 | 16.67° C | 33% | 1017.7 hPa | 0 mm | - | - | - |
| 1777840772 | 16.67° C | 33% | 1017.8 hPa | 0 mm | - | - | - |
| 1777840167 | 16.11° C | 32% | 1017.8 hPa | 0 mm | - | - | - |
| 1777839564 | 16.11° C | 35% | 1017.8 hPa | 0 mm | - | - | - |
| 1777838962 | 16.11° C | 38% | 1017.9 hPa | 0 mm | - | - | - |
| 1777838359 | 16.11° C | 33% | 1018.2 hPa | 0 mm | - | - | - |
| 1777837757 | 16.11° C | 38% | 1018.3 hPa | 0 mm | - | - | - |
| 1777837154 | 16.11° C | 31% | 1018.3 hPa | 0 mm | - | - | - |
| 1777836548 | 15.56° C | 33% | 1018.4 hPa | 0 mm | - | - | - |
| 1777835946 | 16.11° C | 36% | 1018.5 hPa | 0 mm | - | - | - |
* Rain latest 24 hours (hover to see other rain measurements)
** Current wind speed in m/s (hover to see current wind gust speed)